| Temperature (°F) | Max | Average | Min |
|---|---|---|---|
| Max Temperature | 84 | 75.71 | 58 |
| Avg Temperature | 73.14 | 64.85 | 46.67 |
| Min Temperature | 63 | 54.26 | 37 |
| Dew Point (°F) | Max | Average | Min |
|---|---|---|---|
| Dew Point | 71 | 55.77 | 18 |
| Precipitation (in) | Max | Average | Min | Sum |
|---|---|---|---|---|
| Precipitation | 2.87 | 0.10 | 0.00 | 3.13 |
| Snowdepth | 0.00 | 0.00 | 0.00 | 0.00 |
| Wind (mph) | Max | Average | Min |
|---|---|---|---|
| Wind | 22 | 7.23 | 0 |
| Gust Wind | 32 | 1.28 | 0 |
| Sea Level Pressure (in) | Max | Average | Min |
|---|---|---|---|
| Sea Level Pressure | 30.25 | 29.99 | 29.73 |
| Date | Temperature (°F) | Dew Point (°F) | Humidity (%) | Wind Speed (mph) | Pressure (in) | Precipitation (in) | ||||||||||
|---|---|---|---|---|---|---|---|---|---|---|---|---|---|---|---|---|
| Max | Avg | Min | Max | Avg | Min | Max | Avg | Min | Max | Avg | Min | Max | Avg | Min | ||
| 12/31/2025 | 65 | 46.7 | 38 | 35 | 25.0 | 18 | 71 | 45.0 | 25 | 14 | 9.1 | 3 | 30.1 | 30.1 | 30.0 | 0.00 |
| 12/30/2025 | 58 | 51.9 | 37 | 57 | 32.5 | 23 | 78 | 48.8 | 34 | 16 | 10.9 | 7 | 30.0 | 30.0 | 29.9 | 0.00 |
| 12/29/2025 | 64 | 67.1 | 45 | 63 | 58.9 | 55 | 100 | 77.9 | 43 | 16 | 7.5 | 0 | 30.0 | 29.9 | 29.9 | 0.00 |
| 12/28/2025 | 80 | 65.3 | 54 | 65 | 60.3 | 58 | 100 | 85.9 | 54 | 7 | 1.6 | 0 | 30.1 | 30.0 | 30.0 | 0.00 |
| 12/27/2025 | 78 | 67.0 | 59 | 61 | 57.6 | 54 | 90 | 73.2 | 52 | 13 | 5.3 | 0 | 30.0 | 30.0 | 29.9 | 0.00 |
| 12/26/2025 | 78 | 67.5 | 56 | 61 | 57.4 | 55 | 96 | 72.2 | 48 | 9 | 3.8 | 0 | 30.1 | 30.0 | 29.9 | 0.00 |
| 12/25/2025 | 78 | 68.3 | 56 | 60 | 57.1 | 54 | 96 | 69.8 | 43 | 8 | 3.9 | 0 | 30.1 | 30.1 | 30.0 | 0.00 |
| 12/24/2025 | 79 | 67.5 | 59 | 59 | 57.1 | 55 | 97 | 71.7 | 46 | 9 | 4.4 | 0 | 30.2 | 30.2 | 30.1 | 0.00 |
| 12/23/2025 | 79 | 68.2 | 57 | 61 | 58.1 | 55 | 97 | 72.7 | 44 | 15 | 6.6 | 0 | 30.3 | 30.2 | 30.2 | 0.00 |
| 12/22/2025 | 79 | 67.4 | 59 | 62 | 58.6 | 55 | 93 | 75.5 | 48 | 20 | 11.0 | 3 | 30.2 | 30.2 | 30.2 | 0.00 |
| 12/21/2025 | 80 | 66.4 | 56 | 62 | 58.6 | 56 | 97 | 77.8 | 50 | 14 | 6.7 | 0 | 30.2 | 30.1 | 30.0 | 0.00 |
| 12/20/2025 | 80 | 62.9 | 56 | 58 | 49.5 | 42 | 90 | 64.4 | 30 | 12 | 6.7 | 0 | 30.1 | 30.0 | 30.0 | 0.00 |
| 12/19/2025 | 79 | 72.5 | 50 | 70 | 64.9 | 51 | 97 | 78.4 | 47 | 16 | 8.9 | 3 | 30.0 | 29.9 | 29.8 | 0.00 |
| 12/18/2025 | 83 | 70.6 | 59 | 68 | 64.9 | 60 | 100 | 83.1 | 66 | 9 | 5.8 | 0 | 30.0 | 29.9 | 29.9 | 0.01 |
| 12/17/2025 | 80 | 65.8 | 59 | 60 | 57.7 | 55 | 93 | 76.7 | 55 | 10 | 6.0 | 0 | 30.1 | 30.0 | 30.0 | 0.00 |
| 12/16/2025 | 78 | 58.9 | 56 | 59 | 52.7 | 48 | 100 | 82.0 | 47 | 13 | 8.0 | 5 | 30.2 | 30.1 | 30.1 | 0.00 |
| 12/15/2025 | 73 | 58.6 | 49 | 51 | 46.5 | 41 | 92 | 65.4 | 49 | 22 | 13.8 | 9 | 30.2 | 30.1 | 30.1 | 0.00 |
| 12/14/2025 | 66 | 67.4 | 51 | 66 | 58.7 | 41 | 97 | 75.8 | 49 | 18 | 7.1 | 0 | 30.1 | 30.0 | 29.9 | 0.00 |
| 12/13/2025 | 79 | 64.1 | 58 | 61 | 55.9 | 50 | 97 | 76.8 | 52 | 10 | 4.2 | 0 | 30.1 | 30.0 | 30.0 | 0.00 |
| 12/12/2025 | 78 | 59.6 | 51 | 51 | 43.4 | 33 | 93 | 60.4 | 27 | 8 | 3.1 | 0 | 30.1 | 30.0 | 30.0 | 0.00 |
| 12/11/2025 | 73 | 57.7 | 46 | 54 | 45.6 | 37 | 100 | 68.3 | 36 | 10 | 4.7 | 0 | 30.0 | 29.9 | 29.8 | 0.00 |
| 12/10/2025 | 67 | 59.8 | 49 | 59 | 55.0 | 49 | 96 | 84.8 | 68 | 13 | 7.4 | 3 | 29.9 | 29.9 | 29.8 | 0.00 |
| 12/9/2025 | 71 | 59.7 | 52 | 54 | 51.2 | 47 | 89 | 74.4 | 55 | 18 | 11.9 | 8 | 30.0 | 30.0 | 29.9 | 0.00 |
| 12/8/2025 | 70 | 64.9 | 52 | 65 | 61.9 | 54 | 97 | 90.2 | 80 | 17 | 8.1 | 0 | 30.0 | 29.9 | 29.8 | 2.87 |
| 12/7/2025 | 70 | 67.1 | 60 | 69 | 64.9 | 59 | 100 | 92.6 | 79 | 20 | 8.9 | 0 | 29.9 | 29.9 | 29.8 | 0.23 |
| 12/6/2025 | 75 | 70.1 | 61 | 69 | 66.1 | 58 | 97 | 87.9 | 56 | 17 | 9.2 | 0 | 30.0 | 29.9 | 29.8 | 0.00 |
| 12/5/2025 | 83 | 72.1 | 60 | 67 | 63.8 | 59 | 100 | 77.2 | 51 | 17 | 8.6 | 0 | 30.0 | 29.9 | 29.8 | 0.00 |
| 12/4/2025 | 84 | 65.8 | 60 | 60 | 56.8 | 52 | 96 | 75.4 | 40 | 14 | 6.0 | 0 | 30.1 | 30.0 | 30.0 | 0.00 |
| 12/3/2025 | 80 | 67.5 | 55 | 64 | 59.3 | 54 | 90 | 76.6 | 48 | 10 | 6.0 | 0 | 30.0 | 29.9 | 29.8 | 0.02 |
| 12/2/2025 | 76 | 73.1 | 59 | 71 | 67.3 | 63 | 100 | 83.4 | 53 | 21 | 11.0 | 0 | 29.9 | 29.8 | 29.7 | 0.00 |
| 12/1/2025 | 84 | 69.1 | 63 | 65 | 61.7 | 57 | 96 | 79.0 | 48 | 14 | 8.1 | 0 | 30.1 | 30.0 | 29.9 | 0.00 |